This demonstration page uses our WeatherBlox Daily Observations layout. Learn more.

Left ArrowRight Arrow

Hourly Observations for December 31, 2019

Temp ( °F °C ) Dew Point ( °F °C ) Humidity (%) Winds ( mph kmh ) Pressure ( in mb ) Visibility ( mi km ) Precip ( " mm )
12:53 am 00:53 Clear 33 0.6 21 -6.1 61 61 SW 26 43 29.90 1013 10 16 0.00 0.00
1:53 am 01:53 Clear 35 1.7 21 -6.1 57 57 SW 28 44 29.87 1011 10 16 0.00 0.00
2:53 am 02:53 Clear 35 1.7 22 -5.6 59 59 SW 23 37 29.86 1011 10 16 0.00 0.00
3:53 am 03:53 Clear 36 2.2 23 -5 59 59 SW 24 39 29.82 1010 10 16 0.00 0.00
4:53 am 04:53 Clear 35 1.7 23 -5 61 61 SW 23 37 29.83 1010 10 16 0.00 0.00
5:53 am 05:53 Clear 35 1.7 24 -4.4 64 64 SW 25 41 29.80 1009 10 16 0.00 0.00
6:53 am 06:53 Clear 33 0.6 24 -4.4 70 70 SW 18 30 29.82 1010 10 16 0.00 0.00
7:53 am 07:53 Clear 33 0.6 23 -5 66 66 SW 20 31 29.78 1009 10 16 0.00 0.00
8:53 am 08:53 Sunny 35 1.7 24 -4.4 64 64 SW 23 37 29.78 1008 10 16 0.00 0.00
9:53 am 09:53 Sunny 37 2.8 25 -3.9 62 62 SW 22 35 29.76 1008 10 16 0.00 0.00
10:53 am 10:53 Sunny 40 4.4 26 -3.3 58 58 SW 22 35 29.75 1008 10 16 0.00 0.00
11:53 am 11:53 Sunny 43 6.1 27 -2.8 53 53 SW 24 39 29.72 1006 10 16 0.00 0.00
12:53 pm 12:53 Sunny 46 7.8 28 -2.2 50 50 SW 23 37 29.67 1005 10 16 0.00 0.00
1:53 pm 13:53 Sunny 45 7.2 28 -2.2 52 52 WSW 21 33 29.64 1004 10 16 0.00 0.00
2:53 pm 14:53 Sunny 45 7.2 29 -1.7 54 54 SW 22 35 29.62 1003 10 16 0.00 0.00
3:53 pm 15:53 Cloudy 42 5.6 29 -1.7 60 60 SW 18 30 29.59 1002 10 16 0.00 0.00
4:53 pm 16:53 Partly Cloudy 40 4.4 28 -2.2 63 63 SW 21 33 29.56 1001 10 16 0.00 0.00
5:53 pm 17:53 Partly Cloudy 39 3.9 28 -2.2 65 65 SW 20 31 29.53 1000 10 16 0.00 0.00
6:53 pm 18:53 Partly Cloudy 38 3.3 28 -2.2 68 68 WSW 14 22 29.50 999 10 16 0.00 0.00
7:53 pm 19:53 Cloudy 39 3.9 28 -2.2 65 65 SW 16 26 29.46 998 10 16 0.00 0.00
8:53 pm 20:53 Cloudy 40 4.4 29 -1.7 65 65 WSW 18 30 29.42 996 10 16 0.00 0.00
9:53 pm 21:53 Mostly Cloudy 40 4.4 29 -1.7 65 65 WSW 18 30 29.38 995 10 16 0.00 0.00
10:53 pm 22:53 Cloudy 39 3.9 29 -1.7 67 67 WSW 15 24 29.36 994 10 16 0.00 0.00
11:53 pm 23:53 Cloudy 39 3.9 29 -1.7 67 67 WSW 15 24 29.34 994 10 16 0.00 0.00

Powered by AerisWeather